Погода в Альборайе

Испания     39°29′58″N   0°20′47″E
темп.,
°C
ветер,
м/с
пор.,
м/с
влажн.,
%
обл.,
%
осадки,
мм/ч
давл.,
гПа
погр.,
м
18 апреля, вс
вс1823:00+13ю33560 0.0 1019403
02:00+12сз33570 0.0 1019170
05:00+10ссз69490 0.0 1019424
08:00+9сз45540 0.0 1020222
11:00+12св11440 0.0 1021440
14:00+12юв33530 0.0 1021369
17:00+12ююв66660 0.0 1020302
20:00+14ююв77710 0.0 1019320
19 апреля, пн
пн1923:00+14ююв34750 0.0 1020242
02:00+13сз33782 0.0 1019101
05:00+12з346996 0.0 1018127
08:00+13зюз335674 0.0 1017124
11:00+16зюз225096 0.0 1017133
14:00+15всв8759100 0.0 1016214
17:00+16всв5569100 0.0 1015452
20:00+15св7775100 0.0 1015346
20 апреля, вт
вт2023:00+14ссв3468100 0.0 1016192
02:00+14ссз2263100 0.0 1016113
05:00+14ссв4470100 0.0 1015230
08:00+14с3369100 0.0 1015155
11:00+15всв226972 0.0 1015289
14:00+15в547740 0.0 1015373
17:00+15всв66718 0.1 1013447
20:00+15св2269100 0.2 1014336
21 апреля, ср
ср2123:00+13ссв4484100 1.8 1015282
02:00+13юз1186100 2.8 1014138
05:00+13з008599 0.6 1013141
08:00+13з118689 1.1 1013129
11:00+14в117965 0.0 1014260
14:00+14вюв4385100 0.0 1013311
17:00+15вюв4483100 0.0 1012357
20:00+15в3482100 0.1 1013421
22 апреля, чт
чт2223:00+14св2288100 2.2 1014267
02:00+14всв3492100 5.9 1014286
05:00+14в3493100 3.2 1013363
08:00+14св3492100 6.8 1015328
11:00+15св3383100 0.4 1016413
14:00+15св558094 0.6 1017568
17:00+15всв668141 0.1 1017509
20:00+15всв5583100 0.1 1017499